This is the latest recevied weather packets stored in our database for station/object VK3PBR-10. If no packets are shown the sender has not sent any weather packets the latest 10 day(s).
| Time | Temp. | Humidity | Pressure | Rain* | Wind** | Luminosity | Snow |
|---|---|---|---|---|---|---|---|
| 1787756466 | 7.22° C | 74% | 1031.4 hPa | - | - | - | - |
| 1787755566 | 7.22° C | 75% | 1031.3 hPa | - | - | - | - |
| 1787754665 | 7.22° C | 73% | 1031.3 hPa | - | - | - | - |
| 1787753765 | 7.78° C | 73% | 1031.3 hPa | - | - | - | - |
| 1787752865 | 7.78° C | 74% | 1031.3 hPa | - | - | - | - |
| 1787751965 | 7.78° C | 74% | 1031.6 hPa | - | - | - | - |
| 1787751064 | 8.33° C | 74% | 1031.5 hPa | - | - | - | - |
| 1787750164 | 8.33° C | 74% | 1031.4 hPa | - | - | - | - |
| 1787749264 | 8.89° C | 74% | 1031.4 hPa | - | - | - | - |
| 1787748363 | 8.89° C | 74% | 1031.4 hPa | - | - | - | - |
| 1787747463 | 8.89° C | 73% | 1031.5 hPa | - | - | - | - |
| 1787746562 | 9.44° C | 73% | 1031.6 hPa | - | - | - | - |
| 1787745661 | 10° C | 73% | 1031.6 hPa | - | - | - | - |
| 1787744761 | 10.56° C | 73% | 1031.5 hPa | - | - | - | - |
| 1787743861 | 11.11° C | 72% | 1031.4 hPa | - | - | - | - |
| 1787742960 | 12.22° C | 72% | 1031.4 hPa | - | - | - | - |
| 1787742060 | 12.22° C | 74% | 1031.5 hPa | - | - | - | - |
| 1787741160 | 11.11° C | 73% | 1031.4 hPa | - | - | - | - |
| 1787740260 | 11.11° C | 72% | 1031.2 hPa | - | - | - | - |
| 1787739360 | 11.67° C | 73% | 1031.1 hPa | - | - | - | - |
| 1787738460 | 11.11° C | 72% | 1031.2 hPa | - | - | - | - |
| 1787737559 | 11.11° C | 72% | 1031 hPa | - | - | - | - |
| 1787736659 | 11.67° C | 72% | 1031 hPa | - | - | - | - |
| 1787735759 | 12.22° C | 72% | 1030.9 hPa | - | - | - | - |
| 1787734859 | 12.78° C | 72% | 1030.7 hPa | - | - | - | - |
* Rain since midnight (hover to see other rain measurements)
** Current wind speed in m/s (hover to see current wind gust speed)